Sacramento, CA

6:49 PM PDT on April 26, 2018 (GMT -0700)
Sacramento Executive

Weather History for KSAC - October, 2011

Change the Weather History Date:

Saturday, October 22, 2011

  Actual Average Record
Temperature  
Mean Temperature 67 °F -  
Max Temperature 83 °F 75 °F 88 °F (1959)
Min Temperature 50 °F 49 °F 39 °F (1949)
Degree Days  
Heating Degree Days 0    
Month to date heating degree days 38  
Cooling Degree Days 2    
Month to date cooling degree days 50  
Year to date cooling degree days 1150  
Growing Degree Days 16 (Base 50)    
Moisture  
Dew Point 53 °F    
Average Humidity 65    
Maximum Humidity 96    
Minimum Humidity 34    
Precipitation  
Precipitation 0.00 in 0.03 in 1.06 in (1973)
Month to date precipitation 1.33 0.55  
Year to date precipitation 15.94 12.79  
Since 1 July precipitation 1.34  
Sea Level Pressure  
Sea Level Pressure 30.07 in    
Wind  
Wind Speed 1 mph (North)    
Max Wind Speed 7 mph    
Max Gust Speed 13 mph    
Visibility 9 miles    
Events      
T = Trace of Precipitation, MM = Missing Value Source: NWS Daily Summary

Daily Weather History Graph

Daily Weather History Graph

Search for Another Location

Airport or City:

Astronomy

Oct. 22, 2011 Rise Set
Actual Time 7:21 AM PDT 6:18 PM PDT
Civil Twilight 6:54 AM PDT 6:45 PM PDT
Nautical Twilight 6:23 AM PDT 7:16 PM PDT
Astronomical Twilight 5:53 AM PDT 7:46 PM PDT
Moon 2:28 AM PDT (10/22) 3:36 PM PDT (10/22)
Length of Visible Light 11h 50m
Length of Day
10h 56m
Waning Crescent, 22% of the Moon is Illuminated
Oct 22
Waning Crescent
Oct 26
New
Nov 2
First Quarter
Nov 10
Full
Nov 18
Last Quarter

Hourly Weather History & Observations

Time (PDT) Temp. Heat Index Dew Point Humidity Pressure Visibility Wind Dir Wind Speed Gust Speed Precip Events Conditions
12:53 AM 55.0 °F - 52.0 °F 89% 30.10 in 10.0 mi Calm Calm - N/A   Clear
1:53 AM 54.0 °F - 52.0 °F 93% 30.10 in 8.0 mi Calm Calm - N/A   Clear
2:53 AM 53.1 °F - 51.1 °F 93% 30.10 in 9.0 mi Calm Calm - N/A   Clear
3:53 AM 52.0 °F - 50.0 °F 93% 30.09 in 4.0 mi Calm Calm - N/A   Clear
4:53 AM 51.1 °F - 50.0 °F 96% 30.09 in 10.0 mi Calm Calm - N/A   Clear
5:53 AM 51.1 °F - 48.9 °F 92% 30.09 in 4.0 mi Calm Calm - N/A   Clear
6:53 AM 51.1 °F - 48.9 °F 92% 30.09 in 6.0 mi Calm Calm - N/A   Clear
7:53 AM 50.0 °F - 48.9 °F 96% 30.11 in 6.0 mi Calm Calm - N/A   Clear
8:53 AM 57.9 °F - 55.0 °F 90% 30.12 in 5.0 mi Calm Calm - N/A   Clear
9:53 AM 63.0 °F - 55.9 °F 78% 30.13 in 9.0 mi Calm Calm - N/A   Clear
10:53 AM 68.0 °F - 55.0 °F 63% 30.13 in 10.0 mi Calm Calm - N/A   Clear
11:53 AM 72.0 °F - 53.1 °F 51% 30.12 in 10.0 mi NNW 4.6 mph - N/A   Clear
12:53 PM 75.9 °F - 53.1 °F 45% 30.09 in 10.0 mi Calm Calm - N/A   Clear
1:53 PM 79.0 °F - 53.1 °F 40% 30.06 in 10.0 mi Variable 3.5 mph - N/A   Clear
2:53 PM 80.1 °F 79.9 °F 53.1 °F 39% 30.04 in 10.0 mi NW 3.5 mph - N/A   Clear
3:53 PM 82.0 °F 81.2 °F 53.1 °F 37% 30.02 in 10.0 mi NNE 4.6 mph - N/A   Clear
4:53 PM 82.0 °F - 52.0 °F 35% 30.00 in 10.0 mi NNE 3.5 mph - N/A   Clear
5:53 PM 78.1 °F - 51.1 °F 39% 30.00 in 10.0 mi Calm Calm - N/A   Clear
6:53 PM 68.0 °F - 55.0 °F 63% 29.99 in 10.0 mi Calm Calm - N/A   Clear
7:53 PM 64.0 °F - 55.0 °F 73% 29.99 in 10.0 mi Calm Calm - N/A   Clear
8:53 PM 61.0 °F - 55.0 °F 81% - 10.0 mi Calm Calm - N/A   Clear
9:53 PM 60.1 °F - 55.0 °F 83% - 10.0 mi Calm Calm - N/A   Clear
10:53 PM 57.9 °F - 55.0 °F 90% - 10.0 mi Calm Calm - N/A   Clear
11:53 PM 57.0 °F - 55.0 °F 93% - 10.0 mi Calm Calm - N/A   Clear